Regional Weather Roundup
Issued by NWS

Home | Current Version | Previous Version | Text Only | Print | Product List | Glossary Off
Versions: 1 2 3 4 5 6 7 8 9 10 11 12 13 14 15 16 17 18 19 20 21 22 23 24 25 26 27 28 29 30 31 32 33 34 35 36 37 38 39 40 41 42 43 44 45 46 47 48 49 50

000
ASUS43 KMPX 282201
RWRMN
WEATHER ROUNDUP FOR MINNESOTA
NATIONAL WEATHER SERVICE TWIN CITIES/CHANHASSEN MN
500 PM CDT FRI AUG 28 2015


NOTE: "FAIR" INDICATES FEW OR NO CLOUDS BELOW 12,000 FEET WITH NO
SIGNIFICANT WEATHER AND/OR OBSTRUCTIONS TO VISIBILITY. N/A MEANS
CURRENT SKY AND/OR WEATHER CONDITIONS ARE NOT AVAILABLE.

MNZ060>063-068>070-282300-
   Twin Cities Metro

CITY           SKY/WX    TMP DP  RH WIND       PRES   REMARKS
TWIN CITIES    PTSUNNY   73  60  63 SE13      30.00S
ST PAUL        PTSUNNY   73  62  68 SE13      30.01S
CRYSTAL        CLOUDY    74  60  61 S16       29.98S
LAKEVILLE      PTSUNNY   68  61  77 SE8       30.01F
EDEN PRAIRIE   MOSUNNY   72  60  66 SE12      29.99F
SOUTH ST PAUL  MOSUNNY   73  59  61 S10G16    30.00S
LAKE ELMO      PTSUNNY   73  64  73 SE3       30.02S
$$
MNZ001>005-007-008-013>017-022>024-027-028-282300-
   Northwest Minnesota

CITY           SKY/WX    TMP DP  RH WIND       PRES   REMARKS
BEMIDJI        SUNNY     79  65  62 SW15G21   29.89R
HALLOCK        MOSUNNY   84  70  61 W12       29.78S
ROSEAU         MOSUNNY   81  70  69 SW5       29.82S
WARROAD        PTSUNNY   79  72  78 S5        29.83S
THIEF RVR FALL SUNNY    N/A N/A N/A S18G25    29.84R
CROOKSTON      SUNNY     81  66  61 SW23      29.84F
FOSSTON        SUNNY     79  64  61 SW18G26   29.89R
DETROIT LAKES  SUNNY     77  64  65 S14       29.93S
MOORHEAD       SUNNY     81  66  61 S13G21    29.89S
PARK RAPIDS    PTSUNNY   80  63  55 SW17G24   29.92S
MAHNOMEN       FAIR      77  67  70 S17G25    29.89S
$$
MNZ006-009>011-018-025>026-282300-
   North Central Minnesota

CITY           SKY/WX    TMP DP  RH WIND       PRES   REMARKS
BAUDETTE       PTSUNNY   80  65  59 SW12      29.84R
FLAG ISLAND    PTSUNNY   70  66  88 S3        29.82S
INTL FALLS     MOSUNNY   78  68  71 SW6       29.86S
WASKISH        MOSUNNY   79  68  69 SW9       29.87R
BIG FORK       PTSUNNY   81  66  61 SW9       29.90R
LONGVILLE      MOSUNNY   79  64  61 S12G18    29.91S
GRAND RAPIDS     N/A     79  63  57 SW12G21   29.92R
CRANE LAKE     MOSUNNY   75  66  73 SW2       29.90R
ORR            MOSUNNY   79  63  57 S8        29.86S
COOK           MOSUNNY   79  66  65 SW8       29.90R
WALKER         FAIR      78  64  61 S10G22    29.90S
$$
MNZ012-019>021-037-282300-
   Northeast Minnesota

CITY           SKY/WX    TMP DP  RH WIND       PRES   REMARKS
DULUTH         MOSUNNY   77  63  61 SW17      29.94S
ELY            PTSUNNY   75  64  69 SW7       29.91R
HIBBING        MOSUNNY   77  64  64 S8G18     29.90F
EVELETH        MOSUNNY   77  64  65 SW9       29.92S
DULUTH HARBOR  MOSUNNY   81  66  61 SW13G18   29.91F
TWO HARBORS    MOSUNNY   81  68  65 SW14G21   29.90S
SILVER BAY     MOSUNNY   79  66  65 S10       29.89F
GRAND MARAIS     N/A     57  53  86 CALM      29.91S
G MARAIS ARPRT CLOUDY    66  61  82 CALM      29.95R
$$
MNZ029>031-032-039>041-046>048-054>057-064-282300-
   West Central Minnesota

CITY           SKY/WX    TMP DP  RH WIND       PRES   REMARKS
FERGUS FALLS   MOSUNNY   79  66  65 S14       29.92S
WHEATON        SUNNY     73  63  68 S9        29.95R
MORRIS         SUNNY     79  64  61 S9        29.94F
ALEXANDRIA     PTSUNNY   76  63  64 SW13      29.98R
ELBOW LAKE     FAIR      76  66  70 S9        29.94F
WADENA         MOSUNNY   77  63  61 S14       29.94S
GLENWOOD       MOSUNNY   77  64  65 S10       29.97S
APPLETON       MOSUNNY   77  63  61 S6        29.95R
BENSON         PTSUNNY   75  63  64 SW8       29.96R
ORTONVILLE     MOSUNNY   77  64  65 S7        29.95R
MADISON        MOSUNNY   75  63  64 S8        29.96R
WILLMAR        FAIR      73  63  68 S12G21    29.98F
$$
MNZ033>034-036-042>043-049>051-058-059-282300-
   Central Minnesota

CITY           SKY/WX    TMP DP  RH WIND       PRES   REMARKS
ST CLOUD       MOSUNNY   77  63  61 S12       29.97F
SAUK CENTRE    FAIR      76  64  65 S9        29.97R
PAYNESVILLE    SUNNY     75  61  61 E12       29.97F
AITKIN         MOSUNNY   79  64  61 S13       29.93F
PINE RIVER     SUNNY     79  64  61 S10G18    29.95F
BRAINERD       PTSUNNY   78  62  57 S13       29.94F
STAPLES        PTSUNNY   77  63  61 S13       29.94S
LONG PRAIRIE   CLOUDY    75  63  64 SE9       29.96S
LITTLE FALLS   MOSUNNY   77  59  53 S8        29.96S
LITCHFIELD     MOSUNNY   73  64  73 SE12      29.99F
BUFFALO        PTSUNNY   73  60  62 S8G16     29.99F
MAPLE LAKE     PTSUNNY   74  64  72 S6        29.99F
$$
MNZ037-044-045-052-053-282300-
   East Central Minnesota

CITY           SKY/WX    TMP DP  RH WIND       PRES   REMARKS
PRINCETON      SUNNY     79  63  57 S10       29.98S
MORA           SUNNY     75  59  57 S10       29.98F
CAMBRIDGE      MOSUNNY   79  63  57 S9        29.97S
RUSH CITY      MOSUNNY   76  62  62 S8        29.99R
MOOSE LAKE     SUNNY     77  63  61 SW14      29.93F
HINCKLEY       FAIR      79  63  57 S14       29.96F
CLOQUET        MOSUNNY   79  63  57 S12       29.94F
MCGREGOR       MOSUNNY   77  63  61 SW13G22   29.94F
$$
MNZ071>073-080-081-089-090-097-098-282300-
   Southwest Minnesota

CITY           SKY/WX    TMP DP  RH WIND       PRES   REMARKS
MONTEVIDEO     SUNNY     77  64  65 S12       29.98S
GRANITE FALLS  MOSUNNY   73  62  69 SE12G18   29.98F
CANBY          SUNNY     73  63  68 SE10      29.97S
MARSHALL       CLOUDY    70  59  68 SE10      29.99S
REDWOOD FALLS  CLOUDY    70  60  70 SE15      29.98S
OLIVIA         PTSUNNY   70  59  68 SE9       29.98F
PIPESTONE      CLOUDY    70  61  73 E7        29.97F
WINDOM         CLOUDY    64  57  77 E10       29.98S
WORTHINGTON    CLOUDY    63  55  77 E12       29.97R
JACKSON        CLOUDY    63  59  88 E12       29.98R
TRACY          CLOUDY    67  61  81 SE8       29.99S
SLAYTON        CLOUDY    65  60  84 E7        29.99S
$$
MNZ065>067-074>077-082>085-091>093-282300-
   South Central Minnesota

CITY           SKY/WX    TMP DP  RH WIND       PRES   REMARKS
MANKATO        PTSUNNY   66  57  72 SE15G21   30.00R
NEW ULM        MOSUNNY   70  59  68 E9        29.99S
ST JAMES       CLOUDY    66  59  77 E8        29.99R
FAIRMONT       CLOUDY    63  54  72 E13G20    29.96R
GLENCOE        PTSUNNY   73  62  69 SE10      29.99F
FARIBAULT      MOSUNNY   68  59  73 SE12G17   30.02R
OWATONNA       PTSUNNY   66  57  72 SE13G21   30.00R
WASECA         MOSUNNY   64  57  77 MISG      30.00S
ALBERT LEA     CLOUDY    59  59 100 E18G24    29.98S
$$
MNZ078>079-086>088-094>096-282300-
   Southeast Minnesota

CITY           SKY/WX    TMP DP  RH WIND       PRES   REMARKS
ROCHESTER      LGT RAIN  60  57  89 SE15      30.03S FOG
RED WING       CLOUDY    70  61  73 S9        30.02R
STANTON        PTSUNNY   70  60  69 SE9       30.01R
DODGE CENTER   PTSUNNY   61  57  88 SE10G16   30.01F
WINONA         RAIN      61  59  94 SE5       30.05S
AUSTIN         LGT RAIN  61  57  88 E14G20    29.99F
PRESTON        LGT RAIN  57  54  88 E16G24    30.04F
$$
ABBREVIATIONS USED IN REMARKS
   TC - TEMPERATURES IN CELSIUS
  WCI - WIND CHILL INDEX
   HX - HEAT INDEX
  VSB - VISIBILITY
$$


USA.gov is the U.S. government's official web portal to all federal, state and local government web resources and services.